Location: Bailleul
(50.3375°N, 2.8513°E)
Time: 01:32:35
(UTC+00:00)

Cosmos 1867 - Pass Details

Date: 26 October 2021
Orbit: 773 x 803 km, 65.0° (Epoch: 30 November)

Event Time Altitude Azimuth Distance (km) Brightness Sun altitude
Rises 04:39:49 0° 186° (S) 3,276 6.7 -18.0°
Reaches altitude 10° 04:42:27 10° 176° (S) 2,356 6.1 -17.6°
Maximum altitude 04:47:10 31° 115° (ESE) 1,365 5.4 -16.8°
Drops below altitude 10° 04:51:56 10° 55° (NE) 2,384 6.9 -16.1°
Sets 04:54:36 0° 46° (NE) 3,321 7.5 -15.6°
